EW2175 Weather Reports


time (UTC)temp
C
wind
direction
speed
KPH
gust
KPH
rain 1hr
cm
rain 24hr
cm
rain mn
cm
humidity
%
barometer
mb
20260903004512 17 76 1.6 11.3 0.00 0.00 0.00 73 1020.6
20260903003009 17 76 0.0 6.4 0.00 0.00 0.00 72 1020.6
20260903001515 17 89 0.0 4.8 0.00 0.00 0.00 72 1020.5
20260903000010 17 88 0.0 6.4 0.00 0.00 0.00 71 1020.5
20260902234504 17 57 0.0 4.8 0.00 0.00 0.00 71 1020.5
20260902233003 17 88 0.0 4.8 0.00 0.00 0.00 70 1020.6
20260902231501 17 88 0.0 4.8 0.00 0.00 0.00 69 1020.5
20260902230118 18 83 0.0 3.2 0.00 0.00 0.00 69 1020.5
20260902224612 18 83 0.0 4.8 0.00 0.00 0.00 69 1020.4
20260902223111 18 66 0.0 4.8 0.00 0.00 0.00 68 1020.3
20260902221604 18 65 0.0 0.0 0.00 0.00 0.00 67 1020.3
20260902220052 18 86 0.0 0.0 0.00 0.00 0.00 66 1020.2
20260902214615 19 86 0.0 6.4 0.00 0.00 0.00 65 1020.2
20260902213051 19 80 0.0 4.8 0.00 0.00 0.00 63 1020.0
20260902211552 20 96 0.0 0.0 0.00 0.00 0.00 61 1019.8
20260902210052 20 228 0.0 0.0 0.00 0.00 0.00 59 1019.9
20260902204547 20 229 0.0 0.0 0.00 0.00 0.00 58 1019.8
20260902203046 21 229 0.0 0.0 0.00 0.00 0.00 57 1019.5
20260902201557 21 229 0.0 0.0 0.00 0.00 0.00 55 1019.5
20260902200049 22 229 0.0 0.0 0.00 0.00 0.00 54 1019.4
20260902194550 22 229 0.0 0.0 0.00 0.00 0.00 53 1019.3
20260902193045 23 229 0.0 0.0 0.00 0.00 0.00 52 1019.3
20260902191545 23 229 0.0 0.0 0.00 0.00 0.00 50 1019.1
20260902190044 23 229 0.0 4.8 0.00 0.00 0.00 49 1019.0
20260902184543 24 313 0.0 0.0 0.00 0.00 0.00 50 1018.7
20260902183043 25 350 0.0 0.0 0.00 0.00 0.00 49 1018.5
20260902181544 25 350 0.0 0.0 0.00 0.00 0.00 47 1018.4
20260902180042 25 350 0.0 0.0 0.00 0.00 0.00 46 1018.3
20260902174548 26 350 0.0 0.0 0.00 0.00 0.00 45 1018.1
20260902173041 26 333 0.0 8.0 0.00 0.00 0.00 44 1018.0
20260902171543 26 352 0.0 9.7 0.00 0.00 0.00 43 1017.8
20260902170040 27 336 0.0 12.9 0.00 0.00 0.00 41 1017.6
20260902164545 28 326 8.0 14.5 0.00 0.00 0.00 37 1017.4
20260902163039 29 280 1.6 12.9 0.00 0.00 0.00 34 1017.4
20260902161538 29 319 0.0 11.3 0.00 0.00 0.00 33 1017.5
20260902160036 30 173 3.2 17.7 0.00 0.00 0.00 32 1017.6
20260902154535 30 259 0.0 6.4 0.00 0.00 0.00 32 1017.7
20260902153035 30 52 0.0 4.8 0.00 0.00 0.00 32 1017.6
20260902151532 30 217 6.4 11.3 0.00 0.00 0.00 33 1017.7
20260902150031 29 219 0.0 0.0 0.00 0.00 0.00 34 1017.7
20260902144530 29 236 0.0 0.0 0.00 0.00 0.00 34 1017.8
20260902143030 29 152 0.0 8.0 0.00 0.00 0.00 33 1017.9
20260902141533 29 281 0.0 1.6 0.00 0.00 0.00 33 1017.9
20260902140025 29 148 1.6 11.3 0.00 0.00 0.00 33 1018.1
20260902134530 29 194 3.2 9.7 0.00 0.00 0.00 33 1018.1
20260902133024 30 243 0.0 9.7 0.00 0.00 0.00 33 1018.2
20260902131521 28 210 0.0 0.0 0.00 0.00 0.00 35 1018.3
20260902130025 28 149 0.0 9.7 0.00 0.00 0.00 35 1018.5
20260902124518 28 254 0.0 19.3 0.00 0.00 0.00 34 1018.5
20260902123017 30 244 4.8 22.5 0.00 0.00 0.00 31 1018.6
20260902121515 30 198 1.6 12.9 0.00 0.00 0.00 32 1018.6
20260902120014 30 254 6.4 12.9 0.00 0.00 0.00 34 1018.8
20260902114510 28 236 0.0 9.7 0.00 0.00 0.00 34 1018.8
20260902113006 28 217 3.2 12.9 0.00 0.00 0.00 36 1018.9
20260902111506 27 14 1.6 16.1 0.00 0.00 0.00 39 1019.0
20260902110005 27 245 3.2 16.1 0.00 0.00 0.00 40 1019.1
20260902104502 27 223 1.6 11.3 0.00 0.00 0.00 40 1019.3
20260902103105 27 152 0.0 9.7 0.00 0.00 0.00 41 1019.4
20260902101556 26 259 0.0 3.2 0.00 0.00 0.00 43 1019.4
20260902100052 25 250 1.6 8.0 0.00 0.00 0.00 46 1019.5
20260902094546 24 308 0.0 4.8 0.00 0.00 0.00 50 1019.6
20260902093044 23 238 0.0 0.0 0.00 0.00 0.00 53 1019.8
20260902091541 22 222 0.0 0.0 0.00 0.00 0.00 57 1019.8
20260902090035 21 221 0.0 0.0 0.00 0.00 0.00 61 1020.0
20260902084529 20 222 0.0 0.0 0.00 0.00 0.00 65 1019.9
20260902083024 19 276 0.0 0.0 0.00 0.00 0.00 69 1019.9
20260902081525 18 317 0.0 0.0 0.00 0.00 0.00 70 1019.7
20260902080018 18 321 0.0 0.0 0.00 0.00 0.00 69 1019.5
20260902074517 18 81 0.0 0.0 0.00 0.00 0.00 66 1019.4
20260902073014 18 81 0.0 0.0 0.00 0.00 0.00 66 1019.2
20260902071513 17 78 0.0 0.0 0.00 0.00 0.00 69 1019.1
20260902070013 16 72 0.0 0.0 0.00 0.00 0.00 72 1019.0
20260902064510 16 64 0.0 0.0 0.00 0.00 0.00 75 1019.2
20260902063007 15 64 0.0 0.0 0.00 0.00 0.00 76 1019.2
20260902061505 15 64 0.0 0.0 0.00 0.00 0.00 77 1019.2
20260902060004 15 64 0.0 0.0 0.00 0.00 0.00 78 1019.3
20260902054503 14 63 0.0 0.0 0.00 0.00 0.00 79 1019.3
20260902053001 14 63 0.0 0.0 0.00 0.00 0.00 79 1019.2
20260902051618 14 63 0.0 0.0 0.00 0.00 0.00 78 1019.1
20260902050100 14 63 0.0 0.0 0.00 0.00 0.00 76 1019.0
20260902044553 14 63 0.0 9.7 0.00 0.00 0.00 76 1018.9
20260902043109 15 57 0.0 3.2 0.00 0.00 0.00 75 1018.9
20260902041550 15 60 0.0 4.8 0.00 0.00 0.00 75 1018.8
20260902040050 15 57 0.0 4.8 0.00 0.00 0.00 75 1018.9
20260902034549 15 48 0.0 6.4 0.00 0.00 0.00 75 1018.7
20260902033047 15 84 0.0 0.0 0.00 0.00 0.00 75 1018.7
20260902031546 15 83 0.0 0.0 0.00 0.00 0.00 74 1018.9
20260902030044 15 83 0.0 4.8 0.00 0.00 0.00 73 1019.0
20260902024542 15 83 0.0 0.0 0.00 0.00 0.00 73 1019.0
20260902023046 15 83 0.0 0.0 0.00 0.00 0.00 72 1018.9
20260902021540 15 78 0.0 4.8 0.00 0.00 0.00 71 1018.8
20260902020038 16 82 0.0 6.4 0.00 0.00 0.00 71 1018.8
20260902014537 16 95 0.0 6.4 0.00 0.00 0.00 71 1018.7
20260902013034 16 87 1.6 9.7 0.00 0.00 0.00 70 1018.7
20260902011549 16 75 0.0 11.3 0.00 0.00 0.00 70 1018.8
20260902010031 16 92 0.0 8.0 0.00 0.00 0.00 70 1018.9